Weather History for Millington, TN

Change the Weather History Date:

Tuesday, January 14, 2014

  Actual Average Record
Temperature  
Mean Temperature 46 °F -  
Max Temperature 60 °F 47 °F - (-1)
Min Temperature 32 °F 30 °F - (-1)
Degree Days  
Heating Degree Days 19    
Moisture  
Dew Point 33 °F    
Average Humidity 68    
Maximum Humidity 93    
Minimum Humidity 38    
Precipitation  
Precipitation 0.00 in - - ()
Sea Level Pressure  
Sea Level Pressure 29.98 in    
Wind  
Wind Speed 4 mph (West)    
Max Wind Speed 18 mph    
Max Gust Speed -    
Visibility 10 miles    
Events      
Averages and records for this station are not official NWS values.
T = Trace of Precipitation, MM = Missing Value Source: NWS Daily Summary

Daily Weather History Graph

Daily Weather History Graph

Search for Another Location

Airport:

Trip Planner

Search our weather history database for the weather conditions in past years. The results will help you decide how hot, cold, wet, or windy it might be!

Date:

Astronomy

Jan. 14, 2014 Rise Set
Actual Time 7:08 AM CST 5:09 PM CST
Civil Twilight 6:40 AM CST 5:37 PM CST
Nautical Twilight 6:09 AM CST 6:08 PM CST
Astronomical Twilight 5:38 AM CST 6:38 PM CST
Moon 4:13 PM CST (1/14) 5:43 AM CST (1/14)
Length of Visible Light 10h 56m
Length of Day
10h 01m
Waxing Gibbous, 98% of the Moon is Illuminated
Jan 14
Waxing Gibbous
Jan 15
Full
Jan 23
Last Quarter
Jan 30
New
Feb 6
First Quarter

Hourly Weather History & Observations

Time (CST) Temp. Windchill Dew Point Humidity Pressure Visibility Wind Dir Wind Speed Gust Speed Precip Events Conditions
12:52 AM 42.8 °F 40.1 °F 33.8 °F 70% 29.94 in 10.0 mi WNW 4.6 mph - N/A   Clear
1:50 AM 39.2 °F - 33.8 °F 81% 29.95 in 10.0 mi Calm Calm - N/A   Clear
2:15 AM 39.2 °F - 33.8 °F 81% 29.96 in 10.0 mi Calm Calm - N/A   Clear
2:35 AM 39.2 °F - 33.8 °F 81% 29.96 in 10.0 mi Calm Calm - N/A   Clear
2:55 AM 37.4 °F - 33.8 °F 87% 29.96 in 10.0 mi Calm Calm - N/A   Clear
3:15 AM 39.2 °F - 33.8 °F 81% 29.96 in 10.0 mi Calm Calm - N/A   Clear
3:35 AM 39.2 °F - 33.8 °F 81% 29.96 in 10.0 mi Calm Calm - N/A   Clear
3:55 AM 35.6 °F - 33.8 °F 93% 29.95 in 10.0 mi Calm Calm - N/A   Clear
4:15 AM 35.6 °F - 33.8 °F 93% 29.95 in 10.0 mi Calm Calm - N/A   Clear
4:35 AM 35.6 °F - 32.0 °F 87% 29.95 in 10.0 mi Calm Calm - N/A   Clear
4:55 AM 32.0 °F - 30.2 °F 93% 29.95 in 10.0 mi Calm Calm - N/A   Clear
5:30 AM 32.0 °F - 30.2 °F 93% 29.95 in 10.0 mi Calm Calm - N/A   Clear
5:50 AM 33.8 °F - 32.0 °F 93% 29.96 in 10.0 mi Calm Calm - N/A   Clear
6:50 AM 32.0 °F - 30.2 °F 93% 29.96 in 10.0 mi Calm Calm - N/A   Clear
7:50 AM 33.8 °F - 32.0 °F 93% 29.97 in 10.0 mi Calm Calm - N/A   Clear
8:50 AM 42.8 °F - 33.8 °F 70% 29.97 in 10.0 mi Calm Calm - N/A   Partly Cloudy
9:50 AM 50.0 °F - 37.4 °F 62% 29.97 in 10.0 mi WSW 3.5 mph - N/A   Scattered Clouds
10:50 AM 55.4 °F - 35.6 °F 47% 29.95 in 10.0 mi SSW 10.4 mph - N/A   Scattered Clouds
11:50 AM 57.2 °F - 35.6 °F 44% 29.92 in 10.0 mi SW 15.0 mph - N/A   Scattered Clouds
12:50 PM 59.0 °F - 37.4 °F 45% 29.90 in 10.0 mi SW 18.4 mph - N/A   Scattered Clouds
1:50 PM 60.8 °F - 35.6 °F 39% 29.90 in 10.0 mi WSW 18.4 mph - N/A   Mostly Cloudy
2:50 PM 57.2 °F - 32.0 °F 38% 29.95 in 10.0 mi WSW 16.1 mph - N/A   Mostly Cloudy
3:50 PM 57.2 °F - 35.6 °F 44% 29.96 in 10.0 mi West 11.5 mph - N/A   Mostly Cloudy
4:50 PM 55.4 °F - 35.6 °F 47% 30.00 in 10.0 mi West 11.5 mph - N/A   Mostly Cloudy
5:50 PM 51.8 °F - 37.4 °F 58% 30.03 in 10.0 mi West 8.1 mph - N/A   Overcast
6:55 PM 51.8 °F - 37.4 °F 58% 30.05 in 10.0 mi West 8.1 mph - N/A   Mostly Cloudy
7:57 PM 51.8 °F - 37.4 °F 58% 30.05 in 10.0 mi West 8.1 mph - N/A   Scattered Clouds
8:57 PM 48.2 °F - 26.6 °F 43% 30.10 in 10.0 mi NW 9.2 mph - N/A   Scattered Clouds
9:57 PM 44.6 °F 41.4 °F 30.2 °F 57% 30.11 in 10.0 mi NW 5.8 mph - N/A   Overcast
10:54 PM 44.6 °F 40.7 °F 24.8 °F 46% 30.12 in 10.0 mi North 6.9 mph - N/A   Overcast
11:54 PM 42.8 °F 38.0 °F 24.8 °F 49% 30.13 in 10.0 mi NW 8.1 mph - N/A   Mostly Cloudy